Location: Hope
(40.9110°N, 74.9680°W)
Time: 01:54:56
(UTC-04:00)

VELOX 1 - Pass Details

Date: 02 August 2021
Orbit: 626 x 643 km, 98.3° (Epoch: 19 September)

Event Time Altitude Azimuth Distance (km) Brightness Sun altitude
Rises 03:07:51 0° 122° (ESE) 2,932 ? -25.0°
Reaches altitude 10° 03:10:46 10° 101° (ESE) 2,031 ? -24.7°
Maximum altitude 03:13:28 16° 64° (ENE) 1,666 ? -24.4°
Drops below altitude 10° 03:16:10 10° 26° (NNE) 2,044 ? -24.1°
Sets 03:19:06 0° 5° (N) 2,961 ? -23.8°
